P/2021 Q1 ( Gibbs )

Japanese version
Home page
Updated on August 28, 2021

---------------------------------------------------------------------

* Profile

Recovery Date August 16, 2021
Magnitude 20.0 mag
Recoverer E. Schwab (Egelsbach, Germany)

* Pictures

* Orbital Elements

Epoch 2021 May 26.0 TT = JDT 2459360.5                                          
T 2021 May 14.67928 TT                                  Rudenko                 
q   1.6739860            (2000.0)            P               Q                  
n   0.15147411     Peri.   36.81394     +0.90886593     +0.39661101             
a   3.4853290      Node   299.33851     -0.40920622     +0.78802886             
e   0.5197050      Incl.    8.51539     -0.08070303     +0.47086116             
P   6.51                                                                        
From 77 observations 2014 Nov. 30-2021 Aug. 17, mean residual 0".7.             

* Finding Charts

* Magnitudes Graph

        m1 = 16.0 + 5 log d + 10.0 log r

        * Gray curve is:  m1 = 14.0 + 5 log d + 10.0 log r

---------------------------------------------------------------------

The orbital elements are published on M.P.E.C. 2021-Q47.
The charts are made with StellaNavigator Ver.10 (AstroArts).
The magnitudes graphs are made with Comet for Windows.

---------------------------------------------------------------------

Copyright(C) Seiichi Yoshida (comet@aerith.net). All rights reserved.